Flag for China Weather past 2 weeks in Chengdu, Sichuan, China

Now
75 °F

Passing clouds.


Feels Like: 78 °F
Forecast: 61 / 79 °F
Wind: 3 mph from East

Location: Chengdu Airport

Current Time: Oct 20, 2014 at 6:11:04 PM

Latest Report: Oct 20, 2014 at 5:00 PM


Visibility: N/A

Pressure: 29.95 "Hg

Humidity: 54%

Dew point: 57 °F

Location of ChengduLocation

Historic Weather in Chengdu — Graph

°F

Chengdu temperature yesterday

Maximum temperature yesterday: 70 °F (at 1:00 PM)
Minimum temperature yesterday: 63 °F (at 2:00 AM)
Average temperature yesterday: 66 °F

Past Weeks' High & Low Weather Summary

 TemperatureHumidityPressure
High84 °F (Oct 5, 5:00 PM)94% (Oct 9, 8:00 AM)30.36 "Hg (Oct 9, 8:00 AM)
Low55 °F (Oct 13, 11:00 PM)31% (Oct 6, 4:00 PM)29.89 "Hg (Oct 9, 4:00 PM)
Average65 °F76%30.10 "Hg
* Reported Oct 5 5:00 PM — Oct 20 5:00 PM, Chengdu, Weather by CustomWeather, © 2014

Note: Actual official high and low records may vary slightly from our data, if they occured in-between our weather recording intervals... More about our weather records

Advertising

Chengdu weather history for previous 24 hours

 ConditionsComfort  
Time TempWeatherWind HumidityBarometerVisibility
5:00 PM
Oct 20
75 °FPassing clouds.3 mph54%29.95 "HgN/A
4:00 PM75 °FScattered clouds.3 mph50%29.95 "HgN/A
3:00 PM75 °FScattered clouds.3 mph54%29.92 "HgN/A
2:00 PM73 °FScattered clouds.3 mph57%29.95 "HgN/A
1:00 PM75 °FScattered clouds.3 mph57%29.95 "Hg3 mi
11:00 AM72 °FHaze.3 mph69%29.98 "Hg1 mi
10:00 AM66 °FFog.3 mph88%30.01 "Hg1 mi
9:00 AM64 °FFog.No wind88%29.98 "Hg1 mi
8:00 AM63 °FFog.1 mph88%29.95 "Hg1 mi
7:00 AM63 °FFog.1 mph88%29.95 "Hg1 mi
6:00 AM63 °FFog.1 mph94%29.92 "Hg1 mi
5:00 AM63 °FFog.No wind94%29.92 "Hg2 mi
4:00 AM64 °FFog.No wind88%29.92 "Hg2 mi
3:00 AM64 °FFog.1 mph88%29.95 "Hg2 mi
2:00 AM64 °FFog.No wind88%29.95 "Hg2 mi
1:00 AM66 °FFog.1 mph83%29.98 "Hg2 mi
12:00 AM64 °FFog.No wind88%29.98 "Hg2 mi
11:00 PM
Oct 19
64 °FFog.No wind88%29.98 "Hg3 mi
10:00 PM66 °FFog.No wind83%30.01 "Hg3 mi
9:00 PM66 °FClear.No wind83%29.98 "Hg4 mi
8:00 PM66 °FPassing clouds.No wind83%29.98 "Hg5 mi
7:00 PM66 °FClear.1 mph78%29.95 "Hg5 mi
6:00 PM70 °FPassing clouds.1 mph69%29.95 "Hg5 mi
Weather by CustomWeather, © 2014

See weather overviewHow to use our weather pages